TimeEDT,TemperatureF,Dew PointF,Humidity,Sea Level PressureIn,VisibilityMPH,Wind Direction,Wind SpeedMPH,Gust SpeedMPH,PrecipitationIn,Events,Conditions,WindDirDegrees,DateUTC
12:56 AM,59.9,59.0,97,30.03,7.0,Calm,Calm,-,N/A,,Clear,0,2013-08-07 04:56:00
1:31 AM,59.0,57.2,94,30.01,6.0,Calm,Calm,-,N/A,,Partly Cloudy,0,2013-08-07 05:31:00
1:56 AM,57.9,57.9,100,30.04,4.0,Calm,Calm,-,N/A,,Clear,0,2013-08-07 05:56:00
2:56 AM,59.9,57.9,93,30.04,10.0,Calm,Calm,-,N/A,,Clear,0,2013-08-07 06:56:00
3:56 AM,56.8,55.9,97,30.04,4.0,Calm,Calm,-,N/A,,Clear,0,2013-08-07 07:56:00
4:56 AM,57.9,57.9,100,30.04,8.0,Calm,Calm,-,N/A,,Partly Cloudy,0,2013-08-07 08:56:00
5:56 AM,57.9,57.9,100,30.03,6.0,Calm,Calm,-,N/A,,Clear,0,2013-08-07 09:56:00
6:35 AM,59.0,57.2,94,29.99,4.0,Calm,Calm,-,N/A,,Scattered Clouds,0,2013-08-07 10:35:00
6:56 AM,61.0,59.9,96,30.02,6.0,Calm,Calm,-,N/A,,Scattered Clouds,0,2013-08-07 10:56:00
7:56 AM,62.6,60.8,94,30.00,7.0,Calm,Calm,-,N/A,,Mostly Cloudy,0,2013-08-07 11:56:00
8:56 AM,66.9,61.9,84,30.03,10.0,Calm,Calm,-,N/A,,Mostly Cloudy,0,2013-08-07 12:56:00
9:56 AM,72.0,63.9,76,30.03,10.0,Calm,Calm,-,N/A,,Scattered Clouds,0,2013-08-07 13:56:00
10:21 AM,71.6,64.4,78,30.00,10.0,SSE,3.5,-,N/A,,Scattered Clouds,160,2013-08-07 14:21:00
10:56 AM,73.4,64.4,73,30.00,10.0,Calm,Calm,-,N/A,,Scattered Clouds,0,2013-08-07 14:56:00
11:36 AM,75.2,66.2,73,30.00,10.0,Variable,5.8,-,N/A,,Scattered Clouds,0,2013-08-07 15:36:00
11:56 AM,75.9,66.9,74,30.03,10.0,Variable,3.5,-,N/A,,Mostly Cloudy,0,2013-08-07 15:56:00
12:56 PM,79.9,68.0,67,30.01,10.0,SW,9.2,-,N/A,,Mostly Cloudy,220,2013-08-07 16:56:00
1:56 PM,82.4,69.8,66,29.98,10.0,Variable,3.5,-,N/A,,Mostly Cloudy,0,2013-08-07 17:56:00
2:56 PM,79.9,68.9,69,30.00,10.0,SW,6.9,-,N/A,,Overcast,220,2013-08-07 18:56:00
3:15 PM,78.8,69.8,74,29.97,10.0,WSW,6.9,-,N/A,,Overcast,240,2013-08-07 19:15:00
3:23 PM,75.2,66.2,73,29.99,0.8,NW,20.7,36.8,0.17,Rain,Heavy Rain,310,2013-08-07 19:23:00
3:25 PM,73.4,66.2,78,29.99,0.2,NNW,19.6,36.8,0.28,Rain,Heavy Rain,340,2013-08-07 19:25:00
3:36 PM,68.0,64.4,88,29.99,1.0,WNW,4.6,-,0.35,Rain,Rain,290,2013-08-07 19:36:00
3:38 PM,66.2,64.4,94,29.99,2.5,West,6.9,-,0.35,Rain,Rain,280,2013-08-07 19:38:00
3:42 PM,66.2,64.4,94,29.99,4.0,Variable,6.9,-,0.36,Rain,Light Rain,0,2013-08-07 19:42:00
3:48 PM,66.2,64.4,94,29.99,1.8,NW,6.9,-,0.41,Rain,Light Rain,310,2013-08-07 19:48:00
3:56 PM,66.9,64.9,93,30.04,1.5,Calm,Calm,-,0.44,Rain,Light Rain,0,2013-08-07 19:56:00
4:03 PM,66.2,66.2,100,30.00,1.2,WSW,8.1,18.4,0.03,Rain,Heavy Rain,250,2013-08-07 20:03:00
4:06 PM,66.2,66.2,100,30.01,0.8,SSW,4.6,18.4,0.10,Rain,Heavy Rain,200,2013-08-07 20:06:00
4:12 PM,66.2,66.2,100,30.01,0.5,West,5.8,-,0.27,Fog-Rain,Heavy Rain,270,2013-08-07 20:12:00
4:23 PM,66.2,66.2,100,30.01,0.8,Variable,3.5,-,0.39,Rain,Heavy Rain,0,2013-08-07 20:23:00
4:29 PM,66.2,64.4,94,30.00,1.2,Variable,3.5,-,0.39,Rain,Light Rain,0,2013-08-07 20:29:00
4:31 PM,66.2,64.4,94,30.00,2.0,NW,4.6,-,0.40,Rain,Light Rain,320,2013-08-07 20:31:00
4:35 PM,66.2,64.4,94,29.99,4.0,Calm,Calm,-,0.40,Rain,Light Rain,0,2013-08-07 20:35:00
4:56 PM,66.2,64.4,94,29.95,4.0,South,4.6,-,N/A,Rain,Light Rain,170,2013-08-07 20:56:00
5:56 PM,72.0,68.9,90,29.96,10.0,SSW,4.6,-,0.02,,Clear,210,2013-08-07 21:56:00
6:56 PM,72.0,68.9,90,29.99,10.0,SSE,5.8,-,N/A,,Clear,160,2013-08-07 22:56:00
7:56 PM,70.0,68.0,93,30.00,10.0,Calm,Calm,-,N/A,,Clear,0,2013-08-07 23:56:00
8:56 PM,68.9,66.9,93,30.00,10.0,Calm,Calm,-,N/A,,Clear,0,2013-08-08 00:56:00
9:56 PM,68.9,66.9,93,30.02,10.0,Variable,4.6,-,N/A,,Scattered Clouds,0,2013-08-08 01:56:00
10:56 PM,68.0,66.9,96,30.02,10.0,Variable,4.6,-,N/A,,Partly Cloudy,0,2013-08-08 02:56:00
11:56 PM,68.0,65.8,93,30.02,10.0,Calm,Calm,-,N/A,,Scattered Clouds,0,2013-08-08 03:56:00